Weather History for LHPP - May, 2013

Change the Weather History Date:

Sunday, May 19, 2013

  Actual Average Record
Temperature  
Mean Temperature 66 °F -  
Max Temperature 82 °F 73 °F - ()
Min Temperature 51 °F 54 °F - ()
Cooling Degree Days 2    
Growing Degree Days 16 (Base 50)    
Moisture  
Dew Point 53 °F    
Average Humidity 59    
Maximum Humidity 88    
Minimum Humidity 29    
Precipitation  
Precipitation 0.08 in 0.10 in - ()
Sea Level Pressure  
Sea Level Pressure 29.84 in    
Wind  
Wind Speed 7 mph ()    
Max Wind Speed 21 mph    
Max Gust Speed 41 mph    
Visibility 5.6 miles    
Events Rain , Thunderstorm    
T = Trace of Precipitation, MM = Missing Value Source: Averaged Metar Reports

Daily Weather History Graph

Daily Weather History Graph

Search for Another Location

Airport or City:

Trip Planner

Search our weather history database for the weather conditions in past years. The results will help you decide how hot, cold, wet, or windy it might be!

Date:

Astronomy

May. 19, 2013 Rise Set
Actual Time 5:10 AM CEST 8:17 PM CEST
Civil Twilight 4:34 AM CEST 8:52 PM CEST
Nautical Twilight 3:48 AM CEST 9:39 PM CEST
Astronomical Twilight 2:53 AM CEST 10:35 PM CEST
Moon 1:43 PM CEST (5/19) 1:45 AM CEST (5/19)
Length of Visible Light 16h 18m
Length of Day
15h 06m
Waxing Gibbous, 62% of the Moon is Illuminated
May 19
Waxing Gibbous
May 25
Full
May 31
Last Quarter
Jun 8
New
Jun 16
First Quarter

Hourly Weather History & Observations

Time (CEST) Temp. Heat Index Dew Point Humidity Pressure Visibility Wind Dir Wind Speed Gust Speed Precip Events Conditions
12:45 AM 57.2 °F - 50.0 °F 77% 29.98 in - Calm Calm - N/A   Clear
1:45 AM 55.4 °F - 48.2 °F 77% 29.95 in - ESE 2.3 mph - N/A   Clear
2:00 AM 55 °F - 48 °F 70% 29.96 in 47 mi ESE 2.2 mph - -   Partly Cloudy
2:45 AM 55.4 °F - 48.2 °F 77% 29.95 in - NNE 2.3 mph - N/A   Clear
3:45 AM 53.6 °F - 48.2 °F 82% 29.95 in - ENE 4.6 mph - N/A   Clear
4:45 AM 53.6 °F - 48.2 °F 82% 29.92 in - ENE 4.6 mph - N/A   Clear
5:45 AM 53.6 °F - 48.2 °F 82% 29.92 in - East 3.5 mph - N/A   Clear
6:15 AM 53.6 °F - 50.0 °F 88% 29.92 in - East 6.9 mph - N/A   Clear
6:45 AM 57.2 °F - 51.8 °F 82% 29.92 in - East 4.6 mph - N/A   Clear
7:00 AM - - - N/A% - - East 5.8 mph - N/A   Clear
7:15 AM 59.0 °F - 53.6 °F 82% 29.92 in - East 4.6 mph - N/A   Clear
7:45 AM 62.6 °F - 51.8 °F 68% 29.92 in - East 3.5 mph - N/A   Clear
8:00 AM 62 °F - 52 °F 62% 29.92 in 47 mi East 4.5 mph - -   Partly Cloudy
8:15 AM 64.4 °F - 53.6 °F 68% 29.92 in - East 5.8 mph - N/A   Clear
8:45 AM 66.2 °F - 50.0 °F 56% 29.92 in - East 6.9 mph - N/A   Clear
9:15 AM 68.0 °F - 50.0 °F 52% 29.92 in - ESE 8.1 mph - N/A   Clear
9:45 AM 69.8 °F - 51.8 °F 53% 29.92 in - ESE 8.1 mph - N/A   Clear
10:00 AM - - - N/A% - 3.1 mi SE 10.4 mph - N/A Rain , Thunderstorm Thunderstorms and Rain
10:15 AM 69.8 °F - 55.4 °F 60% 29.89 in - ESE 10.4 mph - N/A   Clear
10:45 AM 71.6 °F - 53.6 °F 53% 29.89 in - ESE 11.5 mph - N/A   Clear
11:15 AM 73.4 °F - 55.4 °F 53% 29.89 in - ESE 11.5 mph - N/A   Clear
11:45 AM 75.2 °F - 55.4 °F 50% 29.86 in - SE 11.5 mph - N/A   Clear
12:15 PM 75.2 °F - 55.4 °F 50% 29.86 in - SE 11.5 mph - N/A   Clear
12:45 PM 78.8 °F - 57.2 °F 47% 29.83 in - SE 10.4 mph - N/A   Clear
1:00 PM - - - N/A% - - SE 11.5 mph - N/A Rain , Thunderstorm Rain Showers
1:11 PM 78.8 °F - 55.4 °F 44% 29.80 in - ESE 11.5 mph - N/A   Clear
1:15 PM 78.8 °F - 55.4 °F 44% 29.83 in - ESE 11.5 mph - N/A   Clear
1:45 PM 78.8 °F - 51.8 °F 39% 29.83 in - SE 16.1 mph - N/A   Clear
2:00 PM 79 °F - 52 °F 29% 29.79 in 37 mi SE 15.7 mph - -   Partly Cloudy
2:15 PM 80.6 °F 80.3 °F 53.6 °F 39% 29.83 in - SE 13.8 mph - N/A   Clear
2:45 PM 80.6 °F 80.3 °F 53.6 °F 39% 29.80 in - ESE 12.7 mph - N/A   Clear
3:15 PM 82.4 °F - 51.8 °F 35% 29.80 in - SE 13.8 mph - N/A   Clear
3:45 PM 82.4 °F - 50.0 °F 32% 29.77 in - SE 12.7 mph - N/A   Clear
4:00 PM - - - N/A% - - SE 11.5 mph - N/A Rain , Thunderstorm Rain Showers
4:15 PM 82.4 °F 81.4 °F 53.6 °F 37% 29.77 in - SE 11.5 mph - N/A   Clear
4:45 PM 82.4 °F 81.4 °F 53.6 °F 37% 29.77 in - SE 12.7 mph - N/A   Clear
5:15 PM 82.4 °F 81.7 °F 55.4 °F 39% 29.77 in - SE 10.4 mph - N/A   Clear
5:45 PM 78.8 °F - 55.4 °F 44% 29.74 in 6.2 mi ESE 9.2 mph - N/A   Scattered Clouds
6:15 PM 78.8 °F - 51.8 °F 39% 29.74 in 6.2 mi ESE 6.9 mph - N/A   Mostly Cloudy
6:39 PM 77.0 °F - 53.6 °F 44% 29.71 in 6.2 mi SE 4.6 mph - N/A Thunderstorm Thunderstorm
6:45 PM 77.0 °F - 55.4 °F 47% 29.74 in 6.2 mi SE 4.6 mph - N/A Thunderstorm Thunderstorm
6:58 PM 77.0 °F - 53.6 °F 44% 29.71 in 6.2 mi SE 2.3 mph - N/A Rain , Thunderstorm Thunderstorms and Rain
7:15 PM 75.2 °F - 53.6 °F 47% 29.74 in 6.2 mi East 2.3 mph - N/A Rain , Thunderstorm Thunderstorms and Rain
7:16 PM 73.4 °F - 55.4 °F 53% 29.77 in - WSW 6.9 mph 27.6 mph N/A   Unknown
7:21 PM 69.8 °F - 57.2 °F 64% 29.77 in - West 16.1 mph 41.4 mph N/A   Unknown
7:22 PM 69.8 °F - 55.4 °F 60% 29.74 in 6.2 mi West 19.6 mph 40.3 mph N/A Rain , Thunderstorm Thunderstorms and Rain
7:45 PM 62.6 °F - 57.2 °F 82% 29.80 in 3.7 mi West 20.7 mph 33.4 mph N/A Rain , Thunderstorm Thunderstorms and Rain
8:00 PM 63 °F - 56 °F 73% 29.78 in 4 mi West 20.1 mph - - Rain , Thunderstorm Thunderstorms and Rain
8:15 PM 64.4 °F - 57.2 °F 77% 29.83 in 5.0 mi WNW 4.6 mph - N/A Rain , Thunderstorm Thunderstorms and Rain
8:45 PM 62.6 °F - 59.0 °F 88% 29.83 in 6.2 mi West 8.1 mph - N/A Thunderstorm Thunderstorm
9:15 PM 64.4 °F - 59.0 °F 83% 29.83 in 6.2 mi West 12.7 mph - N/A   Scattered Clouds
9:45 PM 64.4 °F - 59.0 °F 83% 29.83 in 6.2 mi West 10.4 mph - N/A   Partly Cloudy
10:45 PM 60.8 °F - 53.6 °F 77% 29.86 in - West 12.7 mph - N/A   Clear
11:45 PM 59.0 °F - 53.6 °F 82% 29.86 in - WSW 9.2 mph - N/A   Clear